星链-5286 (STARLINK-5286 )

导读 | 星芒AI

STARLINK-5286 是 SpaceX Starlink 项目中的一颗低轨通信卫星,属于第二代 Starlink 卫星(Gen2)批次。该卫星于2024年发射,旨在为全球用户提供高速、低延迟的互联网服务。它运行在约550公里高的轨道上,配备先进通信设备和激光链路,以提升网络效率和覆盖范围。作为 Starlink 卫星群的一部分,STARLINK-5286 有助于扩展 SpaceX 在全球卫星互联网市场的影响力,并支持偏远地区的网络接入。

基本信息
目录编号:
55294
目录名称:
STARLINK-5286
国际标识:
2023-010AB
轨道中心:
EARTH
卫星名称:
星链-5286
卫星全名:
星链-5286 (STARLINK-5286 )
卫星状态:
在轨 (已飞行1067 天)
发射日期:
2023-01-19 UTC
国别 :
美国 (US)
星等 :
--
轨道信息
数据来源 国际轨道数据
星历时间: 2025-12-21T09:52:40+0800
9小时前
查看轨道信息
半长轴: 6950.188km
偏心率: 0.000278
轨道倾角: 69.998°
近地点辐角 271.142°
升交点赤经 242.535°
平近点角 88.943°
近地点: 570.118km
远地点: 573.984km
周期: 96.107分钟
每日圈数: 14.983318
详细信息
固有亮度:
5
最大亮度:
2.5
卫星平台:
Starlink v1.5
覆盖范围:
全球
运营商:
太空探索技术公司
运营商所在国:
美国
制造商(研发单位):
太空探索技术公司
制造商所在国:
美国
使用方式:
暂无
卫星简介
星链(Starlink)计划是由太空探索技术公司(SpaceX)提出的一个巨型低轨卫星互联网星座项目,计划在2019年至2024年间在太空搭建由约1.2万颗卫星组成的“星链”网络,其中1584颗将部署在地球上空550千米处的近地轨道,并从2020年开始工作。该卫星仍在工作。
2D轨道图
3D轨道图
轨道高度分析图
轨道倾角分析图
轨道综合分析图
查看轨道综合分析图